,,,PA_Meas_PMT16A,,PR_Meas_QMR101_102,,RH_Meas_QMH101,,SR_Meas_QMS101,,TA_Meas_QMH101,,GenWind,,GenWind,
date,time,status,PA,status,PR,status,RH,status,SR,status,TA,status,DirAvg,status,SpdAvg,
2010-05-23, 00:00:04,VALID,1003.81,VALID,0,VALID,91.4932,VALID,0,VALID,25.3195,VALID,342,VALID,0.588281,
2010-05-23, 00:01:04,VALID,1003.8,VALID,0,VALID,92.8053,VALID,0.100563,VALID,25.3,VALID,343,VALID,0.553125,
2010-05-23, 00:02:04,VALID,1003.8,VALID,0,VALID,93.3241,VALID,0,VALID,25.2202,VALID,343,VALID,0.522266,
2010-05-23, 00:03:04,VALID,1003.78,VALID,0,VALID,93.5911,VALID,0,VALID,25.2027,VALID,347,VALID,0.519531,
2010-05-23, 00:04:04,VALID,1003.76,VALID,0,VALID,93.9191,VALID,0.100563,VALID,25.1618,VALID,347,VALID,0.591797,
2010-05-23, 00:05:04,VALID,1003.77,VALID,0,VALID,94.0259,VALID,0,VALID,25.1404,VALID,347,VALID,0.395312,
2010-05-23, 00:06:04,VALID,1003.77,VALID,0,VALID,94.087,VALID,0.100563,VALID,25.1423,VALID,347,VALID,0.473437,
2010-05-23, 00:07:04,VALID,1003.76,VALID,0,VALID,94.2853,VALID,0.100563,VALID,25.1229,VALID,347,VALID,0.402344,
2010-05-23, 00:08:04,VALID,1003.76,VALID,0,VALID,94.3464,VALID,0.100563,VALID,25.1229,VALID,347,VALID,0.526172,
2010-05-23, 00:09:04,VALID,1003.76,VALID,0,VALID,94.3998,VALID,0,VALID,25.1229,VALID,347,VALID,0.385547,
2010-05-23, 00:10:04,VALID,1003.77,VALID,0,VALID,94.2777,VALID,0,VALID,25.1229,VALID,347,VALID,0.323047,
2010-05-23, 00:11:04,VALID,1003.72,VALID,0,VALID,94.0717,VALID,0.100563,VALID,25.1423,VALID,347,VALID,0.292188,
2010-05-23, 00:12:04,VALID,1003.72,VALID,0,VALID,94.0412,VALID,0.100563,VALID,25.1423,VALID,347,VALID,0.527344,
2010-05-23, 00:13:04,VALID,1003.69,VALID,0,VALID,93.8886,VALID,0,VALID,25.1618,VALID,347,VALID,0.247656,
2010-05-23, 00:14:04,VALID,1003.69,VALID,0,VALID,92.9121,VALID,0,VALID,25.1618,VALID,347,VALID,0.39375,
2010-05-23, 00:15:04,VALID,1003.67,VALID,0,VALID,90.7837,VALID,0,VALID,25.2007,VALID,347,VALID,0.279297,
2010-05-23, 00:16:04,VALID,1003.69,VALID,0,VALID,90.4251,VALID,0,VALID,25.2592,VALID,347,VALID,0.192578,
2010-05-23, 00:17:04,VALID,1003.68,VALID,0,VALID,90.4327,VALID,0,VALID,25.3,VALID,347,VALID,0.344141,
2010-05-23, 00:18:04,VALID,1003.68,VALID,0,VALID,89.914,VALID,0,VALID,25.3,VALID,347,VALID,0.199219,
2010-05-23, 00:19:04,VALID,1003.69,VALID,0,VALID,90.036,VALID,0,VALID,25.3584,VALID,347,VALID,0.173828,
2010-05-23, 00:20:04,VALID,1003.7,VALID,0,VALID,89.1969,VALID,0,VALID,25.3584,VALID,351,VALID,0.370703,
2010-05-23, 00:21:04,VALID,1003.69,VALID,0,VALID,88.6018,VALID,0,VALID,25.4169,VALID,351,VALID,0.238281,
2010-05-23, 00:22:04,VALID,1003.68,VALID,0,VALID,88.5179,VALID,0,VALID,25.4753,VALID,351,VALID,0.229687,
2010-05-23, 00:23:04,VALID,1003.68,VALID,0,VALID,88.3195,VALID,0,VALID,25.4753,VALID,351,VALID,0.400781,
2010-05-23, 00:24:04,VALID,1003.7,VALID,0,VALID,88.289,VALID,0,VALID,25.5142,VALID,351,VALID,0.529688,
2010-05-23, 00:25:04,VALID,1003.68,VALID,0,VALID,88.2661,VALID,0,VALID,25.5532,VALID,351,VALID,0.491797,
2010-05-23, 00:26:04,VALID,1003.7,VALID,0,VALID,88.3272,VALID,0,VALID,25.5337,VALID,351,VALID,0.603125,
2010-05-23, 00:27:04,VALID,1003.67,VALID,0,VALID,88.5484,VALID,0,VALID,25.5142,VALID,351,VALID,0.591797,
2010-05-23, 00:28:04,VALID,1003.65,VALID,0,VALID,88.8536,VALID,0,VALID,25.5162,VALID,351,VALID,0.407031,
2010-05-23, 00:29:04,VALID,1003.64,VALID,0,VALID,89.0824,VALID,0,VALID,25.4753,VALID,351,VALID,0.398828,
2010-05-23, 00:30:04,VALID,1003.62,VALID,0,VALID,89.1892,VALID,0,VALID,25.4772,VALID,351,VALID,0.292578,
2010-05-23, 00:31:04,VALID,1003.63,VALID,0,VALID,89.5325,VALID,0,VALID,25.4363,VALID,351,VALID,0.338281,
2010-05-23, 00:32:04,VALID,1003.6,VALID,0,VALID,88.7925,VALID,0,VALID,25.3974,VALID,351,VALID,0.316797,
2010-05-23, 00:33:04,VALID,1003.62,VALID,0,VALID,89.0595,VALID,0,VALID,25.4169,VALID,351,VALID,0.252734,
2010-05-23, 00:34:04,VALID,1003.59,VALID,0,VALID,88.7925,VALID,0,VALID,25.3974,VALID,351,VALID,0.39375,
2010-05-23, 00:35:04,VALID,1003.55,VALID,0,VALID,88.8993,VALID,0,VALID,25.3955,VALID,351,VALID,0.480469,
2010-05-23, 00:36:04,VALID,1003.54,VALID,0,VALID,88.8002,VALID,0,VALID,25.3993,VALID,351,VALID,0.433594,
2010-05-23, 00:37:04,VALID,1003.53,VALID,0,VALID,89.0672,VALID,0,VALID,25.3779,VALID,351,VALID,0.437891,
2010-05-23, 00:38:04,VALID,1003.53,VALID,0,VALID,88.9756,VALID,0,VALID,25.3584,VALID,350,VALID,0.589844,
2010-05-23, 00:39:04,VALID,1003.52,VALID,0,VALID,89.1587,VALID,0,VALID,25.3584,VALID,350,VALID,0.666016,
2010-05-23, 00:40:04,VALID,1003.5,VALID,0,VALID,89.2426,VALID,0,VALID,25.3584,VALID,350,VALID,0.607031,
2010-05-23, 00:41:04,VALID,1003.51,VALID,0,VALID,89.7538,VALID,0,VALID,25.3195,VALID,351,VALID,0.701172,
2010-05-23, 00:42:04,VALID,1003.51,VALID,0,VALID,90.1352,VALID,0,VALID,25.2825,VALID,352,VALID,0.623047,
2010-05-23, 00:43:04,VALID,1003.48,VALID,0,VALID,91.0888,VALID,0,VALID,25.2007,VALID,352,VALID,0.630469,
2010-05-23, 00:44:04,VALID,1003.5,VALID,0,VALID,92.0882,VALID,0,VALID,25.1832,VALID,351,VALID,0.667969,
2010-05-23, 00:45:04,VALID,1003.47,VALID,0,VALID,92.9961,VALID,0,VALID,25.2027,VALID,352,VALID,0.621094,
2010-05-23, 00:46:04,VALID,1003.5,VALID,0,VALID,93.3012,VALID,0,VALID,25.1832,VALID,353,VALID,0.652344,
2010-05-23, 00:47:04,VALID,1003.48,VALID,0,VALID,93.5224,VALID,0,VALID,25.2027,VALID,355,VALID,0.522266,
2010-05-23, 00:48:04,VALID,1003.51,VALID,0,VALID,93.6903,VALID,0,VALID,25.2435,VALID,1,VALID,0.322656,
2010-05-23, 00:49:04,VALID,1003.52,VALID,0,VALID,93.7437,VALID,0,VALID,25.2221,VALID,19,VALID,0.393359,
2010-05-23, 00:50:04,VALID,1003.54,VALID,0,VALID,94.1022,VALID,0,VALID,25.2806,VALID,21,VALID,0.740234,
2010-05-23, 00:51:04,VALID,1003.54,VALID,0,VALID,94.1175,VALID,0,VALID,25.3779,VALID,7,VALID,0.536719,
2010-05-23, 00:52:04,VALID,1003.57,VALID,0,VALID,93.553,VALID,0,VALID,25.4753,VALID,6,VALID,0.682031,
2010-05-23, 00:53:04,VALID,1003.56,VALID,0,VALID,92.0272,VALID,0,VALID,25.5727,VALID,8,VALID,0.578516,
2010-05-23, 00:54:04,VALID,1003.58,VALID,0,VALID,90.4404,VALID,0,VALID,25.67,VALID,28,VALID,0.915625,
2010-05-23, 00:55:04,VALID,1003.59,VALID,0,VALID,89.3952,VALID,0,VALID,25.748,VALID,21,VALID,0.453516,
2010-05-23, 00:56:04,VALID,1003.61,VALID,0,VALID,88.6705,VALID,0,VALID,25.8083,VALID,21,VALID,0.253125,
2010-05-23, 00:57:04,VALID,1003.58,VALID,0,VALID,88.556,VALID,0,VALID,25.8044,VALID,19,VALID,0.302734,
2010-05-23, 00:58:04,VALID,1003.59,VALID,0,VALID,88.5026,VALID,0,VALID,25.8453,VALID,9,VALID,0.354688,
2010-05-23, 00:59:04,VALID,1003.6,VALID,0,VALID,88.3729,VALID,0,VALID,25.9252,VALID,4,VALID,0.729688,
2010-05-23, 01:00:04,VALID,1003.59,VALID,0,VALID,88.0144,VALID,0,VALID,25.9232,VALID,4,VALID,0.351172,
2010-05-23, 01:01:04,VALID,1003.59,VALID,0,VALID,87.8542,VALID,0.100563,VALID,25.9992,VALID,6,VALID,0.637109,
2010-05-23, 01:02:04,VALID,1003.6,VALID,0,VALID,87.7626,VALID,0,VALID,26.0401,VALID,10,VALID,0.0539063,
2010-05-23, 01:03:04,VALID,1003.58,VALID,0,VALID,87.7016,VALID,0,VALID,26.0187,VALID,3,VALID,0.134375,
2010-05-23, 01:04:04,VALID,1003.58,VALID,0,VALID,87.5567,VALID,0.100563,VALID,26.0381,VALID,3,VALID,0.161719,
2010-05-23, 01:05:04,VALID,1003.53,VALID,0,VALID,87.5185,VALID,0.100563,VALID,26.0362,VALID,3,VALID,0.313672,
2010-05-23, 01:06:04,VALID,1003.53,VALID,0,VALID,87.4804,VALID,0.100563,VALID,26.0556,VALID,3,VALID,0.260156,
2010-05-23, 01:07:04,VALID,1003.54,VALID,0,VALID,87.4575,VALID,0.100563,VALID,26.0362,VALID,3,VALID,0.235156,
2010-05-23, 01:08:04,VALID,1003.51,VALID,0,VALID,87.4422,VALID,0.100563,VALID,26.0771,VALID,3,VALID,0.227734,
2010-05-23, 01:09:04,VALID,1003.45,VALID,0,VALID,87.3812,VALID,0.100563,VALID,26.0576,VALID,3,VALID,0.319922,
2010-05-23, 01:10:04,VALID,1003.46,VALID,0,VALID,87.4041,VALID,0.100563,VALID,26.0362,VALID,3,VALID,0.268359,
2010-05-23, 01:11:04,VALID,1003.42,VALID,0,VALID,87.427,VALID,0,VALID,26.0576,VALID,3,VALID,0.335938,
2010-05-23, 01:12:04,VALID,1003.4,VALID,0,VALID,87.5185,VALID,0.100563,VALID,26.0381,VALID,360,VALID,0.579297,
2010-05-23, 01:13:04,VALID,1003.41,VALID,0,VALID,87.6787,VALID,0,VALID,26.0381,VALID,354,VALID,0.4,
2010-05-23, 01:14:04,VALID,1003.39,VALID,0,VALID,87.8466,VALID,0,VALID,25.9992,VALID,354,VALID,0.365234,
2010-05-23, 01:15:04,VALID,1003.38,VALID,0,VALID,88.1136,VALID,0.100563,VALID,25.9388,VALID,354,VALID,0.395312,
2010-05-23, 01:16:04,VALID,1003.33,VALID,0,VALID,88.2127,VALID,0,VALID,25.9057,VALID,354,VALID,0.411328,
2010-05-23, 01:17:04,VALID,1003.37,VALID,0,VALID,88.4569,VALID,0,VALID,25.8453,VALID,354,VALID,0.382422,
2010-05-23, 01:18:04,VALID,1003.33,VALID,0,VALID,88.6323,VALID,0,VALID,25.8453,VALID,354,VALID,0.336719,
2010-05-23, 01:19:04,VALID,1003.33,VALID,0,VALID,88.701,VALID,0,VALID,25.785,VALID,354,VALID,0.287891,
2010-05-23, 01:20:04,VALID,1003.32,VALID,0,VALID,88.7849,VALID,0,VALID,25.8064,VALID,354,VALID,0.425391,
2010-05-23, 01:21:04,VALID,1003.32,VALID,0,VALID,88.8459,VALID,0,VALID,25.7869,VALID,354,VALID,0.503125,
2010-05-23, 01:22:04,VALID,1003.3,VALID,0,VALID,89.0977,VALID,0,VALID,25.7265,VALID,354,VALID,0.566406,
2010-05-23, 01:23:04,VALID,1003.32,VALID,0,VALID,89.4257,VALID,0,VALID,25.6895,VALID,354,VALID,0.503516,
2010-05-23, 01:24:04,VALID,1003.31,VALID,0,VALID,90.1352,VALID,0,VALID,25.6506,VALID,354,VALID,0.465234,
2010-05-23, 01:25:04,VALID,1003.32,VALID,0,VALID,91.2567,VALID,0,VALID,25.6136,VALID,354,VALID,0.508203,
2010-05-23, 01:26:04,VALID,1003.3,VALID,0,VALID,92.5383,VALID,0,VALID,25.5123,VALID,354,VALID,0.448828,
2010-05-23, 01:27:04,VALID,1003.28,VALID,0,VALID,93.4614,VALID,0,VALID,25.5142,VALID,354,VALID,0.3625,
2010-05-23, 01:28:04,VALID,1003.28,VALID,0,VALID,93.6674,VALID,0,VALID,25.4734,VALID,354,VALID,0.376953,
2010-05-23, 01:29:04,VALID,1003.26,VALID,0,VALID,93.8352,VALID,0,VALID,25.4753,VALID,354,VALID,0.358984,
2010-05-23, 01:30:04,VALID,1003.23,VALID,0,VALID,93.9268,VALID,0,VALID,25.4948,VALID,354,VALID,0.324609,
2010-05-23, 01:31:04,VALID,1003.25,VALID,0,VALID,93.9649,VALID,0,VALID,25.4928,VALID,354,VALID,0.453125,
2010-05-23, 01:32:04,VALID,1003.23,VALID,0,VALID,93.9649,VALID,0,VALID,25.5142,VALID,354,VALID,0.374609,
2010-05-23, 01:33:04,VALID,1003.24,VALID,0,VALID,94.0183,VALID,0,VALID,25.5142,VALID,354,VALID,0.326172,
2010-05-23, 01:34:04,VALID,1003.22,VALID,0,VALID,94.1099,VALID,0,VALID,25.5142,VALID,354,VALID,0.366797,
2010-05-23, 01:35:04,VALID,1003.24,VALID,0,VALID,94.1785,VALID,0,VALID,25.4928,VALID,354,VALID,0.410156,
2010-05-23, 01:36:04,VALID,1003.26,VALID,0,VALID,94.1633,VALID,0,VALID,25.4948,VALID,353,VALID,0.331641,
2010-05-23, 01:37:04,VALID,1003.22,VALID,0,VALID,94.1938,VALID,0,VALID,25.5142,VALID,352,VALID,0.332031,
2010-05-23, 01:38:04,VALID,1003.26,VALID,0,VALID,94.1785,VALID,0,VALID,25.4948,VALID,352,VALID,0.241797,
2010-05-23, 01:39:04,VALID,1003.24,VALID,0,VALID,94.3616,VALID,0,VALID,25.4753,VALID,352,VALID,0.246094,
2010-05-23, 01:40:04,VALID,1003.25,VALID,0,VALID,94.4532,VALID,0,VALID,25.4928,VALID,352,VALID,0.312891,
2010-05-23, 01:41:04,VALID,1003.22,VALID,0,VALID,94.5371,VALID,0,VALID,25.4948,VALID,352,VALID,0.321094,
2010-05-23, 01:42:04,VALID,1003.23,VALID,0,VALID,94.6363,VALID,0,VALID,25.5142,VALID,352,VALID,0.187891,
2010-05-23, 01:43:04,VALID,1003.19,VALID,0,VALID,94.682,VALID,0,VALID,25.5162,VALID,352,VALID,0.392969,
2010-05-23, 01:44:04,VALID,1003.19,VALID,0,VALID,94.7431,VALID,0,VALID,25.4734,VALID,352,VALID,0.328516,
2010-05-23, 01:45:04,VALID,1003.18,VALID,0,VALID,94.8194,VALID,0,VALID,25.4928,VALID,352,VALID,0.295312,
2010-05-23, 01:46:04,VALID,1003.19,VALID,0,VALID,94.8194,VALID,0,VALID,25.4928,VALID,351,VALID,0.348047,
2010-05-23, 01:47:04,VALID,1003.18,VALID,0,VALID,94.827,VALID,0,VALID,25.5123,VALID,350,VALID,0.40625,
2010-05-23, 01:48:04,VALID,1003.19,VALID,0,VALID,94.8499,VALID,0,VALID,25.5123,VALID,350,VALID,0.264453,
2010-05-23, 01:49:04,VALID,1003.2,VALID,0,VALID,94.8499,VALID,0,VALID,25.5337,VALID,350,VALID,0.202734,
2010-05-23, 01:50:04,VALID,1003.22,VALID,0,VALID,94.8346,VALID,0,VALID,25.5337,VALID,350,VALID,0.376172,
2010-05-23, 01:51:04,VALID,1003.19,VALID,0,VALID,94.8041,VALID,0,VALID,25.5532,VALID,339,VALID,0.040625,
2010-05-23, 01:52:04,VALID,1003.19,VALID,0,VALID,94.7202,VALID,0,VALID,25.5513,VALID,339,VALID,0.140234,
2010-05-23, 01:53:04,VALID,1003.2,VALID,0,VALID,94.7125,VALID,0,VALID,25.6116,VALID,339,VALID,0.330859,
2010-05-23, 01:54:04,VALID,1003.22,VALID,0,VALID,94.6134,VALID,0,VALID,25.6311,VALID,339,VALID,0.298438,
2010-05-23, 01:55:04,VALID,1003.21,VALID,0,VALID,94.3921,VALID,0,VALID,25.6486,VALID,339,VALID,0.223828,
2010-05-23, 01:56:04,VALID,1003.21,VALID,0,VALID,94.2701,VALID,0.100563,VALID,25.6681,VALID,343,VALID,0.586328,
2010-05-23, 01:57:04,VALID,1003.24,VALID,0,VALID,94.0031,VALID,0,VALID,25.709,VALID,344,VALID,0.411328,
2010-05-23, 01:58:04,VALID,1003.23,VALID,0,VALID,93.675,VALID,0,VALID,25.7285,VALID,343,VALID,0.411328,
2010-05-23, 01:59:04,VALID,1003.27,VALID,0,VALID,93.2783,VALID,0,VALID,25.7285,VALID,344,VALID,0.35625,
2010-05-23, 02:00:04,VALID,1003.25,VALID,0,VALID,93.2631,VALID,0,VALID,25.709,VALID,344,VALID,0.380859,
2010-05-23, 02:01:04,VALID,1003.27,VALID,0,VALID,93.5072,VALID,0,VALID,25.6681,VALID,344,VALID,0.316797,
2010-05-23, 02:02:04,VALID,1003.26,VALID,0,VALID,93.7132,VALID,0,VALID,25.67,VALID,344,VALID,0.267188,
2010-05-23, 02:03:04,VALID,1003.31,VALID,0,VALID,93.8963,VALID,0,VALID,25.6525,VALID,344,VALID,0.224609,
2010-05-23, 02:04:04,VALID,1003.29,VALID,0,VALID,94.0259,VALID,0,VALID,25.6311,VALID,344,VALID,0.228906,
2010-05-23, 02:05:04,VALID,1003.28,VALID,0,VALID,94.148,VALID,0,VALID,25.5902,VALID,344,VALID,0,
2010-05-23, 02:06:04,VALID,1003.33,VALID,0,VALID,94.3464,VALID,0,VALID,25.5513,VALID,344,VALID,0.13125,
2010-05-23, 02:07:04,VALID,1003.3,VALID,0,VALID,94.5905,VALID,0,VALID,25.5318,VALID,344,VALID,0.287109,
2010-05-23, 02:08:04,VALID,1003.31,VALID,0,VALID,94.682,VALID,0,VALID,25.5337,VALID,344,VALID,0,
2010-05-23, 02:09:04,VALID,1003.31,VALID,0,VALID,94.7354,VALID,0,VALID,25.5142,VALID,344,VALID,0.288672,
2010-05-23, 02:10:04,VALID,1003.31,VALID,0,VALID,94.7736,VALID,0,VALID,25.5142,VALID,344,VALID,0.223828,
2010-05-23, 02:11:04,VALID,1003.31,VALID,0,VALID,94.8499,VALID,0,VALID,25.4539,VALID,344,VALID,0.366016,
2010-05-23, 02:12:04,VALID,1003.31,VALID,0,VALID,94.9719,VALID,0.100563,VALID,25.4344,VALID,344,VALID,0.203516,
2010-05-23, 02:13:04,VALID,1003.33,VALID,0,VALID,95.094,VALID,0,VALID,25.4149,VALID,344,VALID,0.198437,
2010-05-23, 02:14:04,VALID,1003.3,VALID,0,VALID,95.2008,VALID,0,VALID,25.4169,VALID,344,VALID,0.352344,
2010-05-23, 02:15:04,VALID,1003.29,VALID,0,VALID,95.2389,VALID,0,VALID,25.3955,VALID,344,VALID,0,
2010-05-23, 02:16:04,VALID,1003.3,VALID,0,VALID,95.3152,VALID,0,VALID,25.3974,VALID,344,VALID,0.252734,
2010-05-23, 02:17:04,VALID,1003.28,VALID,0,VALID,95.3152,VALID,0,VALID,25.3974,VALID,344,VALID,0.238672,
2010-05-23, 02:18:04,VALID,1003.29,VALID,0,VALID,95.3457,VALID,0,VALID,25.3974,VALID,344,VALID,0.210547,
2010-05-23, 02:19:04,VALID,1003.27,VALID,0,VALID,95.4068,VALID,0,VALID,25.3565,VALID,336,VALID,0.247656,
2010-05-23, 02:20:04,VALID,1003.28,VALID,0,VALID,95.4602,VALID,0,VALID,25.3565,VALID,336,VALID,0.430078,
2010-05-23, 02:21:04,VALID,1003.27,VALID,0,VALID,95.5212,VALID,0,VALID,25.337,VALID,336,VALID,0.348047,
2010-05-23, 02:22:04,VALID,1003.28,VALID,0,VALID,95.5746,VALID,0,VALID,25.3584,VALID,336,VALID,0.408594,
2010-05-23, 02:23:04,VALID,1003.27,VALID,0,VALID,95.6433,VALID,0,VALID,25.3176,VALID,336,VALID,0.346484,
2010-05-23, 02:24:04,VALID,1003.29,VALID,0,VALID,95.6814,VALID,0,VALID,25.3195,VALID,336,VALID,0.351563,
2010-05-23, 02:25:04,VALID,1003.3,VALID,0,VALID,95.7424,VALID,0,VALID,25.2786,VALID,336,VALID,0.427734,
2010-05-23, 02:26:04,VALID,1003.27,VALID,0,VALID,95.8264,VALID,0,VALID,25.2786,VALID,336,VALID,0.246484,
2010-05-23, 02:27:04,VALID,1003.26,VALID,0,VALID,95.8493,VALID,0,VALID,25.2592,VALID,336,VALID,0.140625,
2010-05-23, 02:28:04,VALID,1003.22,VALID,0,VALID,95.834,VALID,0,VALID,25.2611,VALID,336,VALID,0.280078,
2010-05-23, 02:29:04,VALID,1003.23,VALID,0,VALID,95.8416,VALID,0,VALID,25.2611,VALID,336,VALID,0.312891,
2010-05-23, 02:30:04,VALID,1003.2,VALID,0,VALID,95.8493,VALID,0,VALID,25.2397,VALID,336,VALID,0.106641,
2010-05-23, 02:31:04,VALID,1003.21,VALID,0,VALID,95.8721,VALID,0,VALID,25.2397,VALID,336,VALID,0.265234,
2010-05-23, 02:32:04,VALID,1003.19,VALID,0,VALID,95.8264,VALID,0,VALID,25.2007,VALID,336,VALID,0.385938,
2010-05-23, 02:33:04,VALID,1003.22,VALID,0,VALID,95.8035,VALID,0,VALID,25.2221,VALID,336,VALID,0.630469,
2010-05-23, 02:34:04,VALID,1003.19,VALID,0,VALID,95.8874,VALID,0,VALID,25.1832,VALID,338,VALID,0.633594,
2010-05-23, 02:35:04,VALID,1003.2,VALID,0,VALID,95.9942,VALID,0,VALID,25.1423,VALID,338,VALID,0.50625,
2010-05-23, 02:36:04,VALID,1003.19,VALID,0,VALID,96.0934,VALID,0,VALID,25.1442,VALID,350,VALID,0.626172,
2010-05-23, 02:37:04,VALID,1003.14,VALID,0,VALID,96.2002,VALID,0,VALID,25.1034,VALID,350,VALID,0.753125,
2010-05-23, 02:38:04,VALID,1003.15,VALID,0,VALID,96.2536,VALID,0,VALID,25.1053,VALID,350,VALID,0.626562,
2010-05-23, 02:39:04,VALID,1003.12,VALID,0,VALID,96.2994,VALID,0,VALID,25.0858,VALID,350,VALID,0.636719,
2010-05-23, 02:40:04,VALID,1003.12,VALID,0,VALID,96.3756,VALID,0,VALID,25.0255,VALID,350,VALID,0.470703,
2010-05-23, 02:41:04,VALID,1003.1,VALID,0,VALID,96.4519,VALID,0,VALID,25.0255,VALID,350,VALID,0.523828,
2010-05-23, 02:42:04,VALID,1003.08,VALID,0,VALID,96.4977,VALID,0,VALID,25.0255,VALID,350,VALID,0.403906,
2010-05-23, 02:43:04,VALID,1003.09,VALID,0,VALID,96.5359,VALID,0,VALID,25.0274,VALID,350,VALID,0.499219,
2010-05-23, 02:44:04,VALID,1003.03,VALID,0,VALID,96.5969,VALID,0,VALID,25.0079,VALID,350,VALID,0.273438,
2010-05-23, 02:45:04,VALID,1003.05,VALID,0,VALID,96.6655,VALID,0,VALID,25.0469,VALID,350,VALID,0.458594,
2010-05-23, 02:46:04,VALID,1003.04,VALID,0,VALID,96.6503,VALID,0,VALID,25.0274,VALID,350,VALID,0.401953,
2010-05-23, 02:47:04,VALID,1003.03,VALID,0,VALID,96.6808,VALID,0,VALID,24.9866,VALID,350,VALID,0.623828,
2010-05-23, 02:48:04,VALID,1003.03,VALID,0,VALID,96.6884,VALID,0,VALID,24.9866,VALID,350,VALID,0.63125,
2010-05-23, 02:49:04,VALID,1003.03,VALID,0,VALID,96.7037,VALID,0,VALID,24.9671,VALID,350,VALID,0.632813,
2010-05-23, 02:50:04,VALID,1003.05,VALID,0,VALID,96.7418,VALID,0,VALID,24.969,VALID,351,VALID,0.701953,
2010-05-23, 02:51:04,VALID,1003.03,VALID,0,VALID,96.7876,VALID,0,VALID,24.9671,VALID,354,VALID,0.553516,
2010-05-23, 02:52:04,VALID,1003.04,VALID,0,VALID,96.8334,VALID,0,VALID,24.9476,VALID,354,VALID,0.563672,
2010-05-23, 02:53:04,VALID,1003.05,VALID,0,VALID,96.8639,VALID,0,VALID,24.9282,VALID,354,VALID,0.401953,
2010-05-23, 02:54:04,VALID,1003.02,VALID,0,VALID,96.8639,VALID,0,VALID,24.93,VALID,354,VALID,0.377734,
2010-05-23, 02:55:04,VALID,1003.05,VALID,0,VALID,96.8792,VALID,0,VALID,24.9087,VALID,354,VALID,0.385547,
2010-05-23, 02:56:04,VALID,1003.04,VALID,0,VALID,96.8639,VALID,0,VALID,24.9106,VALID,354,VALID,0.3375,
2010-05-23, 02:57:04,VALID,1003.02,VALID,0,VALID,96.8792,VALID,0,VALID,24.8697,VALID,354,VALID,0.385156,
2010-05-23, 02:58:04,VALID,1003.03,VALID,0,VALID,96.8715,VALID,0,VALID,24.8503,VALID,354,VALID,0.308984,
2010-05-23, 02:59:04,VALID,1003.04,VALID,0,VALID,96.902,VALID,0,VALID,24.8697,VALID,354,VALID,0.421484,
2010-05-23, 03:00:04,VALID,1003.04,VALID,0,VALID,96.9478,VALID,0,VALID,24.8911,VALID,354,VALID,0.378516,
2010-05-23, 03:01:04,VALID,1002.99,VALID,0,VALID,96.9936,VALID,0,VALID,24.8697,VALID,354,VALID,0.324219,
2010-05-23, 03:02:04,VALID,1002.98,VALID,0,VALID,97.0012,VALID,0,VALID,24.8484,VALID,355,VALID,0.462891,
2010-05-23, 03:03:04,VALID,1002.97,VALID,0,VALID,97.0165,VALID,0,VALID,24.8503,VALID,354,VALID,0.532812,
2010-05-23, 03:04:04,VALID,1002.94,VALID,0,VALID,97.047,VALID,0,VALID,24.8892,VALID,355,VALID,0.480078,
2010-05-23, 03:05:04,VALID,1002.93,VALID,0,VALID,97.0775,VALID,0,VALID,24.9087,VALID,355,VALID,0.505078,
2010-05-23, 03:06:04,VALID,1002.93,VALID,0,VALID,97.1156,VALID,0,VALID,24.9282,VALID,354,VALID,0.366406,
2010-05-23, 03:07:04,VALID,1002.89,VALID,0,VALID,97.1538,VALID,0,VALID,24.9263,VALID,354,VALID,0.424219,
2010-05-23, 03:08:04,VALID,1002.89,VALID,0,VALID,97.1385,VALID,0.100563,VALID,24.9476,VALID,355,VALID,0.292578,
2010-05-23, 03:09:04,VALID,1002.9,VALID,0,VALID,97.1309,VALID,0,VALID,24.9263,VALID,354,VALID,0.235938,
2010-05-23, 03:10:04,VALID,1002.9,VALID,0,VALID,97.1385,VALID,0,VALID,24.9282,VALID,355,VALID,0.109375,
2010-05-23, 03:11:04,VALID,1002.91,VALID,0,VALID,97.108,VALID,0,VALID,24.969,VALID,355,VALID,0.234375,
2010-05-23, 03:12:04,VALID,1002.92,VALID,0,VALID,97.1004,VALID,0,VALID,24.9476,VALID,354,VALID,0.248437,
2010-05-23, 03:13:04,VALID,1002.94,VALID,0,VALID,97.0928,VALID,0,VALID,24.9263,VALID,354,VALID,0.190625,
2010-05-23, 03:14:04,VALID,1002.95,VALID,0,VALID,97.0928,VALID,0,VALID,24.9282,VALID,354,VALID,0.153906,
2010-05-23, 03:15:04,VALID,1002.94,VALID,0,VALID,97.108,VALID,0,VALID,24.9282,VALID,355,VALID,0.163281,
2010-05-23, 03:16:04,VALID,1002.95,VALID,0,VALID,97.0928,VALID,0,VALID,24.9068,VALID,355,VALID,0.26875,
2010-05-23, 03:17:04,VALID,1002.96,VALID,0,VALID,97.0699,VALID,0,VALID,24.9087,VALID,354,VALID,0.355078,
2010-05-23, 03:18:04,VALID,1002.96,VALID,0,VALID,97.047,VALID,0,VALID,24.9087,VALID,354,VALID,0.375,
2010-05-23, 03:19:04,VALID,1002.95,VALID,0,VALID,97.047,VALID,0,VALID,24.8892,VALID,354,VALID,0.414844,
2010-05-23, 03:20:04,VALID,1002.94,VALID,0,VALID,97.0699,VALID,0,VALID,24.8911,VALID,355,VALID,0.669141,
2010-05-23, 03:21:04,VALID,1002.94,VALID,0,VALID,97.0546,VALID,0,VALID,24.8697,VALID,354,VALID,0.469531,
2010-05-23, 03:22:04,VALID,1002.93,VALID,0,VALID,97.0699,VALID,0,VALID,24.8697,VALID,355,VALID,0.6625,
2010-05-23, 03:23:04,VALID,1002.93,VALID,0,VALID,97.0928,VALID,0.100563,VALID,24.8308,VALID,354,VALID,0.612109,
2010-05-23, 03:24:04,VALID,1002.93,VALID,0,VALID,97.0851,VALID,0,VALID,24.8113,VALID,355,VALID,0.394141,
2010-05-23, 03:25:04,VALID,1002.94,VALID,0,VALID,97.1004,VALID,0,VALID,24.7724,VALID,355,VALID,0.503125,
2010-05-23, 03:26:04,VALID,1002.92,VALID,0,VALID,97.0622,VALID,0,VALID,24.7529,VALID,355,VALID,0.426562,
2010-05-23, 03:27:04,VALID,1002.93,VALID,0,VALID,97.0775,VALID,0,VALID,24.7529,VALID,354,VALID,0.394141,
2010-05-23, 03:28:04,VALID,1002.96,VALID,0,VALID,97.1309,VALID,0,VALID,24.7919,VALID,354,VALID,0.387891,
2010-05-23, 03:29:04,VALID,1002.96,VALID,0,VALID,97.1462,VALID,0,VALID,24.8308,VALID,354,VALID,0.637109,
2010-05-23, 03:30:04,VALID,1002.97,VALID,0,VALID,97.1767,VALID,0,VALID,24.8892,VALID,354,VALID,0.398047,
2010-05-23, 03:31:04,VALID,1002.96,VALID,0,VALID,97.1919,VALID,0,VALID,24.969,VALID,353,VALID,0.456641,
2010-05-23, 03:32:04,VALID,1002.97,VALID,0,VALID,97.1843,VALID,0,VALID,25.0255,VALID,347,VALID,0.743359,
2010-05-23, 03:33:04,VALID,1002.96,VALID,0,VALID,97.1767,VALID,0,VALID,25.1053,VALID,353,VALID,0.265234,
2010-05-23, 03:34:04,VALID,1002.99,VALID,0,VALID,97.1462,VALID,0,VALID,25.1813,VALID,351,VALID,0.626172,
2010-05-23, 03:35:04,VALID,1003,VALID,0,VALID,97.0622,VALID,0,VALID,25.2592,VALID,343,VALID,0.45,
2010-05-23, 03:36:04,VALID,1003.04,VALID,0,VALID,96.9173,VALID,0,VALID,25.337,VALID,356,VALID,0.821484,
2010-05-23, 03:37:04,VALID,1003.04,VALID,0,VALID,96.6198,VALID,0,VALID,25.4325,VALID,339,VALID,0.824609,
2010-05-23, 03:38:04,VALID,1003.06,VALID,0,VALID,96.2078,VALID,0,VALID,25.5513,VALID,340,VALID,0.546094,
2010-05-23, 03:39:04,VALID,1003.05,VALID,0,VALID,95.689,VALID,0,VALID,25.6097,VALID,342,VALID,0.603125,
2010-05-23, 03:40:04,VALID,1003.02,VALID,0,VALID,95.1855,VALID,0,VALID,25.6662,VALID,344,VALID,0.692187,
2010-05-23, 03:41:04,VALID,1003.03,VALID,0,VALID,94.7354,VALID,0.100563,VALID,25.746,VALID,342,VALID,0.911328,
2010-05-23, 03:42:04,VALID,1003.02,VALID,0,VALID,94.3006,VALID,0.100563,VALID,25.785,VALID,346,VALID,0.997266,
2010-05-23, 03:43:04,VALID,1002.99,VALID,0,VALID,93.6292,VALID,0,VALID,25.8434,VALID,327,VALID,0.624609,